When you browse on this site, cookies collect data to enhance your experience and personalize the content and advertising you see.
Visit our Privacy Policy to learn more. By continuing to use the site, you agree to this use of cookies and data.
  • In Deutschland
  • Länderverzeichnis
  • Für 7 Tage
  • Wassertemperatur
  • Satellitenkarten
  • Wetterkarte
  • Widgets
  • user-avatar
    Anmelden

    Stündliche Wetter Dongyuan

    Heute, 19 November, Montag

    Zeit Temperatur Niederschläge Wind Luftdruck Luftfeuchtigkeit
    00:00 +22°C° 0.2 mm 3 m/S 761 mmHg 93%
    01:00 +22°C° 0.2 mm 3 m/S 761 mmHg 92%
    02:00 +22°C° 0 mm 3 m/S 761 mmHg 95%
    03:00 +22°C° 0.1 mm 3 m/S 761 mmHg 93%
    04:00 +21°C° 0.1 mm 4 m/S 761 mmHg 92%
    05:00 +21°C° 0.1 mm 4 m/S 761 mmHg 90%
    06:00 +21°C° 0 mm 5 m/S 761 mmHg 89%
    07:00 +21°C° 0 mm 5 m/S 762 mmHg 88%
    08:00 +21°C° 0 mm 5 m/S 762 mmHg 86%
    09:00 +22°C° 0 mm 6 m/S 762 mmHg 80%
    10:00 +23°C° 0 mm 6 m/S 762 mmHg 74%
    11:00 +24°C° 0 mm 7 m/S 763 mmHg 68%
    12:00 +24°C° 0 mm 7 m/S 762 mmHg 68%
    13:00 +24°C° 0 mm 7 m/S 762 mmHg 68%
    14:00 +24°C° 0 mm 7 m/S 761 mmHg 67%
    15:00 +23°C° 0 mm 8 m/S 761 mmHg 72%
    16:00 +22°C° 0 mm 8 m/S 761 mmHg 76%
    17:00 +21°C° 0 mm 8 m/S 761 mmHg 80%
    18:00 +20°C° 0 mm 8 m/S 761 mmHg 82%
    19:00 +20°C° 0 mm 8 m/S 762 mmHg 84%
    20:00 +18°C° 0 mm 8 m/S 762 mmHg 85%
    21:00 +18°C° 0 mm 7 m/S 762 mmHg 86%
    22:00 +18°C° 0 mm 7 m/S 763 mmHg 86%
    23:00 +18°C° 0 mm 7 m/S 763 mmHg 86%

    Morgen, 20 November, Dienstag

    Zeit Temperatur Niederschläge Wind Luftdruck Luftfeuchtigkeit
    00:00 +17°C° 0 mm 7 m/S 763 mmHg 86%
    01:00 +17°C° 0 mm 7 m/S 763 mmHg 87%
    02:00 +17°C° 0 mm 7 m/S 763 mmHg 87%
    03:00 +17°C° 0 mm 7 m/S 763 mmHg 87%
    04:00 +17°C° 0 mm 7 m/S 762 mmHg 88%
    05:00 +16°C° 0 mm 7 m/S 762 mmHg 88%
    06:00 +17°C° 0 mm 7 m/S 763 mmHg 85%
    07:00 +18°C° 0 mm 7 m/S 763 mmHg 83%
    08:00 +18°C° 0 mm 7 m/S 763 mmHg 80%
    09:00 +20°C° 0 mm 7 m/S 763 mmHg 75%
    10:00 +22°C° 0 mm 7 m/S 763 mmHg 70%
    11:00 +23°C° 0 mm 7 m/S 763 mmHg 66%
    12:00 +23°C° 0 mm 7 m/S 762 mmHg 64%
    13:00 +24°C° 0 mm 7 m/S 761 mmHg 63%
    14:00 +24°C° 0 mm 8 m/S 761 mmHg 62%
    15:00 +23°C° 0 mm 7 m/S 760 mmHg 66%
    16:00 +22°C° 0 mm 7 m/S 760 mmHg 70%
    17:00 +22°C° 0 mm 7 m/S 760 mmHg 75%
    18:00 +21°C° 0 mm 7 m/S 761 mmHg 77%
    19:00 +20°C° 0 mm 6 m/S 761 mmHg 80%
    20:00 +19°C° 0 mm 6 m/S 762 mmHg 82%
    21:00 +19°C° 0 mm 6 m/S 762 mmHg 83%
    22:00 +19°C° 0 mm 5 m/S 762 mmHg 83%
    23:00 +19°C° 0 mm 5 m/S 762 mmHg 83%

    übermorgen, 21 November, Mittwoch

    Zeit Temperatur Niederschläge Wind Luftdruck Luftfeuchtigkeit
    00:00 +17°C° 0 mm 5 m/S 762 mmHg 83%
    01:00 +17°C° 0 mm 5 m/S 761 mmHg 84%
    02:00 +18°C° 0 mm 4 m/S 761 mmHg 84%
    03:00 +18°C° 0 mm 4 m/S 761 mmHg 84%
    04:00 +18°C° 0 mm 4 m/S 760 mmHg 84%
    05:00 +18°C° 0 mm 4 m/S 760 mmHg 85%
    06:00 +19°C° 0 mm 4 m/S 760 mmHg 82%
    07:00 +20°C° 0 mm 3 m/S 761 mmHg 80%
    08:00 +21°C° 0 mm 3 m/S 761 mmHg 77%
    09:00 +22°C° 0 mm 3 m/S 761 mmHg 72%
    10:00 +25°C° 0 mm 2 m/S 761 mmHg 67%
    11:00 +27°C° 0 mm 2 m/S 761 mmHg 61%
    12:00 +27°C° 0 mm 2 m/S 761 mmHg 61%
    13:00 +28°C° 0 mm 2 m/S 760 mmHg 60%
    14:00 +28°C° 0 mm 1 m/S 759 mmHg 60%
    15:00 +27°C° 0 mm 2 m/S 759 mmHg 64%
    16:00 +26°C° 0 mm 2 m/S 759 mmHg 68%
    17:00 +25°C° 0 mm 2 m/S 759 mmHg 72%
    18:00 +25°C° 0 mm 3 m/S 760 mmHg 74%
    19:00 +24°C° 0 mm 3 m/S 761 mmHg 76%
    20:00 +22°C° 0 mm 3 m/S 762 mmHg 78%
    21:00 +22°C° 0 mm 3 m/S 762 mmHg 79%
    22:00 +21°C° 0 mm 4 m/S 763 mmHg 81%
    23:00 +20°C° 0 mm 4 m/S 763 mmHg 82%

    22 November, Donnerstag

    Zeit Temperatur Niederschläge Wind Luftdruck Luftfeuchtigkeit
    00:00 +20°C° 0 mm 4 m/S 763 mmHg 83%
    01:00 +20°C° 0 mm 5 m/S 763 mmHg 84%
    02:00 +19°C° 0 mm 5 m/S 762 mmHg 85%
    03:00 +19°C° 0 mm 5 m/S 762 mmHg 86%
    04:00 +19°C° 0 mm 6 m/S 762 mmHg 86%
    05:00 +17°C° 0 mm 6 m/S 762 mmHg 87%
    06:00 +18°C° 0 mm 7 m/S 763 mmHg 85%
    07:00 +18°C° 0 mm 7 m/S 763 mmHg 84%
    08:00 +18°C° 0 mm 8 m/S 764 mmHg 82%
    09:00 +20°C° 0 mm 8 m/S 764 mmHg 80%
    10:00 +19°C° 0 mm 9 m/S 764 mmHg 78%
    11:00 +19°C° 0 mm 9 m/S 764 mmHg 76%
    12:00 +21°C° 0 mm 9 m/S 763 mmHg 73%
    13:00 +21°C° 0 mm 9 m/S 763 mmHg 70%
    14:00 +22°C° 0 mm 9 m/S 762 mmHg 67%
    15:00 +21°C° 0 mm 9 m/S 762 mmHg 68%
    16:00 +19°C° 0 mm 9 m/S 762 mmHg 70%
    17:00 +19°C° 0 mm 9 m/S 762 mmHg 71%
    18:00 +18°C° 0 mm 9 m/S 763 mmHg 72%
    19:00 +17°C° 0 mm 9 m/S 763 mmHg 73%
    20:00 +16°C° 0 mm 9 m/S 764 mmHg 74%
    21:00 +16°C° 0 mm 8 m/S 764 mmHg 75%
    22:00 +15°C° 0 mm 8 m/S 764 mmHg 75%
    23:00 +15°C° 0 mm 8 m/S 764 mmHg 76%

    23 November, Freitag

    Zeit Temperatur Niederschläge Wind Luftdruck Luftfeuchtigkeit
    00:00 +15°C° 0 mm 8 m/S 763 mmHg 77%
    01:00 +13°C° 0 mm 8 m/S 763 mmHg 77%
    02:00 +13°C° 0 mm 8 m/S 763 mmHg 77%
    03:00 +14°C° 0 mm 7 m/S 763 mmHg 78%
    04:00 +14°C° 0 mm 7 m/S 763 mmHg 78%
    05:00 +14°C° 0 mm 7 m/S 763 mmHg 78%
    06:00 +14°C° 0 mm 6 m/S 763 mmHg 75%
    07:00 +15°C° 0 mm 6 m/S 764 mmHg 73%
    08:00 +16°C° 0 mm 5 m/S 764 mmHg 71%
    09:00 +19°C° 0 mm 5 m/S 764 mmHg 65%
    10:00 +20°C° 0 mm 5 m/S 764 mmHg 58%
    11:00 +22°C° 0 mm 5 m/S 763 mmHg 52%
    12:00 +23°C° 0 mm 5 m/S 763 mmHg 51%
    13:00 +25°C° 0 mm 5 m/S 762 mmHg 50%
    14:00 +26°C° 0 mm 5 m/S 761 mmHg 49%
    15:00 +25°C° 0 mm 5 m/S 761 mmHg 55%
    16:00 +22°C° 0 mm 5 m/S 761 mmHg 62%
    17:00 +21°C° 0 mm 5 m/S 761 mmHg 68%
    18:00 +20°C° 0 mm 6 m/S 762 mmHg 73%
    19:00 +19°C° 0 mm 6 m/S 762 mmHg 78%
    20:00 +17°C° 0 mm 6 m/S 763 mmHg 83%
    21:00 +17°C° 0 mm 6 m/S 763 mmHg 84%
    22:00 +16°C° 0 mm 6 m/S 763 mmHg 86%
    23:00 +16°C° 0 mm 6 m/S 763 mmHg 87%

    24 November, Samstag

    Zeit Temperatur Niederschläge Wind Luftdruck Luftfeuchtigkeit
    00:00 +15°C° 0 mm 6 m/S 763 mmHg 88%
    01:00 +15°C° 0 mm 6 m/S 763 mmHg 88%
    02:00 +15°C° 0 mm 6 m/S 763 mmHg 89%
    03:00 +14°C° 0 mm 6 m/S 763 mmHg 89%
    04:00 +14°C° 0 mm 6 m/S 763 mmHg 89%
    05:00 +14°C° 0 mm 6 m/S 763 mmHg 89%
    06:00 +14°C° 0 mm 6 m/S 763 mmHg 86%
    07:00 +15°C° 0 mm 6 m/S 764 mmHg 82%
    08:00 +16°C° 0 mm 6 m/S 764 mmHg 79%
    09:00 +19°C° 0 mm 6 m/S 764 mmHg 71%
    10:00 +21°C° 0 mm 7 m/S 764 mmHg 63%
    11:00 +23°C° 0 mm 7 m/S 764 mmHg 55%
    12:00 +23°C° 0 mm 7 m/S 763 mmHg 53%
    13:00 +24°C° 0 mm 8 m/S 762 mmHg 51%
    14:00 +24°C° 0 mm 8 m/S 761 mmHg 49%
    15:00 +23°C° 0 mm 8 m/S 762 mmHg 56%
    16:00 +21°C° 0 mm 7 m/S 762 mmHg 62%
    17:00 +20°C° 0 mm 7 m/S 762 mmHg 69%
    18:00 +18°C° 0 mm 7 m/S 762 mmHg 72%
    19:00 +17°C° 0 mm 7 m/S 763 mmHg 76%
    20:00 +16°C° 0 mm 7 m/S 763 mmHg 80%
    21:00 +15°C° 0 mm 6 m/S 763 mmHg 81%
    22:00 +15°C° 0 mm 6 m/S 763 mmHg 82%
    23:00 +14°C° 0 mm 6 m/S 763 mmHg 83%
    Mehr zeigen